Location: Unspecified
(34.4950°S, 58.5160°W)
Time: 14:57:50
(UTC+00:00)

BlueWalker 3 - Pass Details

Date: 15 February 2026
Orbit: 451 x 458 km, 53.2° (Epoch: 4 March)

Event Time Altitude Azimuth Distance (km) Brightness Sun altitude
Rises 08:30:34 0° 226° (SW) 2,508 5.3 -12.0°
Reaches altitude 10° 08:32:44 10° 227° (SW) 1,627 4.3 -11.6°
Maximum altitude 08:36:24 79° 313° (NW) 479 1.7 -10.9°
Drops below altitude 10° 08:40:02 10° 40° (NE) 1,609 4.7 -10.3°
Sets 08:42:09 0° 41° (NE) 2,476 5.7 -9.9°
